Wind_Speed
8 8 3 2 3 4 4 5 3 2 1 3 4 12 8 4 4 2 9 18 23 34 30 26 24 24 25 24 22 22 21 20 18 17 16 15 15 15 14 13 13 12 12 10 9 11 11 10 11
9 2 3 2 4 2 5 5 4 4 7 10 8 8 6 4 3 8 9 21 29 32 30 27 25 24 24 24 24 23 21 20 18 17 15 15 14 14 13 12 13 12 10 8 8 9 10 9 9
5 3 3 3 2 3 2 3 4 2 2 5 5 7 4 2 2 6 12 24 28 30 29 27 24 24 24 23 22 21 20 19 18 17 15 15 14 13 13 12 10 8 7 7 7 8 8 8 8
2 5 4 4 5 6 3 6 2 2 4 6 7 6 3 4 6 6 22 21 25 27 27 26 24 23 22 22 21 21 19 19 18 17 16 15 14 13 13 11 9 7 6 6 7 7 6 6 7
3 3 3 2 5 5 6 5 5 2 5 3 2 5 5 4 16 19 22 21 22 23 23 24 23 22 21 20 19 17 17 16 15 15 15 14 12 11 11 10 8 8 7 5 5 7 7 7 8
4 3 3 2 5 5 6 3 4 5 1 6 6 6 2 16 21 20 22 19 18 20 22 24 23 22 20 19 18 17 17 17 16 15 15 13 11 9 8 7 6 6 5 5 4 5 6 8 12
5 3 3 4 6 6 4 2 3 4 4 2 12 5 3 5 23 24 22 20 20 22 24 27 24 22 21 19 18 17 16 16 16 16 16 16 14 12 9 11 9 6 6 6 5 6 6 8 14
5 3 3 2 4 5 4 2 3 5 2 5 3 6 6 10 27 26 19 22 21 25 25 24 24 22 21 19 18 18 18 18 18 17 16 14 11 7 7 7 6 7 7 7 7 7 7 9 15
5 2 2 5 2 7 6 2 6 1 2 3 4 8 5 33 30 25 21 21 23 24 23 21 21 20 18 18 18 18 19 20 20 20 19 18 15 13 11 9 9 9 9 9 8 7 8 11 14
3 3 5 6 2 4 3 3 6 4 4 5 4 10 24 29 28 22 19 19 22 21 21 20 20 21 21 22 21 20 21 21 20 20 19 17 14 13 10 11 11 11 11 10 9 8 9 11 12
3 6 9 16 6 7 3 4 3 2 2 2 6 13 14 20 20 19 20 29 34 32 29 27 25 26 26 24 24 23 23 23 21 20 19 17 15 14 12 12 13 13 12 12 11 11 11 11 10
3 8 8 9 4 3 3 3 4 4 4 4 13 18 14 15 14 19 20 25 31 32 31 29 27 26 26 25 26 25 25 24 23 22 20 20 18 17 15 14 13 13 13 13 13 13 12 13 9
5 4 8 8 7 3 4 4 5 6 8 7 12 16 17 17 18 25 30 31 31 34 35 32 31 26 26 27 25 27 27 26 25 23 22 21 20 20 20 19 17 15 15 15 15 15 15 16 12
4 6 8 7 9 3 3 6 3 8 8 9 15 16 14 16 20 22 21 23 31 33 34 33 32 29 29 31 28 27 25 26 26 26 25 23 22 21 23 23 22 19 18 16 17 17 18 17 11
7 7 9 10 4 5 3 8 7 9 6 10 11 12 14 18 24 25 30 28 34 34 33 35 33 31 31 30 27 28 26 24 25 24 23 24 23 23 25 25 24 21 20 20 18 18 18 18 13
4 3 3 7 2 5 10 9 6 9 7 9 9 7 8 5 5 11 29 36 34 33 38 33 31 30 29 29 27 26 25 24 23 23 23 24 24 25 26 24 26 25 24 23 22 22 22 24 20
2 3 4 8 3 2 5 9 6 1 6 8 8 8 3 7 7 15 21 27 33 36 35 33 28 30 29 27 26 23 22 22 23 24 25 26 25 24 25 28 29 28 26 26 27 26 25 27 26
3 2 4 5 5 6 3 9 8 5 6 9 9 9 9 7 5 13 22 19 29 30 28 28 30 26 24 20 17 16 15 17 19 21 22 23 22 22 25 28 30 30 29 25 25 26 28 30 29
6 3 3 5 6 2 3 6 10 9 8 8 9 6 9 8 5 15 23 23 19 29 27 25 27 24 23 18 14 12 13 16 20 21 22 25 21 22 23 24 29 33 29 30 31 23 22 26 31
2 4 6 5 3 2 6 10 10 8 8 8 10 9 12 8 6 10 18 24 26 27 25 23 22 20 16 12 10 9 9 14 20 20 21 22 23 23 23 25 28 31 31 30 28 26 20 15 31
3 3 3 4 6 2 6 7 7 6 5 6 7 14 14 14 12 9 13 22 27 26 23 22 19 16 13 10 8 8 10 12 13 14 15 18 19 22 24 26 27 29 29 30 30 28 28 19 23
4 4 5 2 4 2 5 5 7 10 7 2 2 9 10 8 8 8 10 18 24 21 22 21 19 16 11 8 7 8 10 14 17 17 16 17 15 17 23 25 27 27 27 27 27 28 34 30 23
7 3 2 2 1 2 3 1 8 6 5 4 5 9 9 9 10 9 8 20 20 19 19 17 15 11 9 8 8 10 13 15 17 17 16 17 17 15 16 21 25 24 21 21 21 23 28 34 30
1 2 4 4 3 2 4 5 5 4 2 3 1 9 10 10 9 8 18 19 15 13 12 10 8 7 7 8 9 11 13 14 15 16 17 16 16 17 17 16 18 20 19 15 14 16 18 21 28
3 5 4 4 1 5 3 3 8 6 7 13 13 9 9 9 10 10 9 11 15 12 9 7 8 11 11 13 14 15 16 16 15 14 15 17 20 23 22 19 19 19 20 20 21 20 22 22 23
6 8 5 5 3 5 8 6 6 4 3 9 12 12 9 7 7 9 8 7 10 10 11 14 14 16 15 16 19 21 20 22 19 17 15 16 19 20 20 21 20 19 18 16 16 16 18 19 19
3 4 6 2 2 0 5 7 5 4 5 8 9 8 8 8 8 6 7 14 13 11 11 10 11 13 12 16 20 24 25 26 25 19 17 19 18 17 16 16 18 19 19 19 18 19 19 20 18
6 3 0 2 4 5 4 5 6 4 6 7 9 9 7 5 7 8 6 9 9 12 12 11 12 13 12 14 12 16 23 29 29 22 21 26 24 17 17 16 16 17 18 20 20 20 19 19 17
1 1 1 3 5 5 3 6 5 11 8 10 9 8 8 8 6 6 6 12 13 12 9 10 12 14 13 11 7 7 10 14 23 27 23 26 24 19 18 18 18 18 19 21 21 19 20 20 19
4 5 6 4 6 4 4 18 4 8 8 9 7 8 8 7 9 8 8 6 3 2 6 9 12 15 13 8 7 8 9 10 16 25 26 25 24 20 19 20 19 21 22 21 19 17 18 18 14
Wind_Direction
307 320 343 50 58 67 264 262 289 268 108 337 50 98 117 93 147 191 160 190 172 160 162 166 168 169 169 169 167 163 161 159 154 150 144 139 135 131 126 122 119 119 115 117 124 124 120 119 117
310 353 63 64 86 70 282 257 129 183 111 115 93 116 55 62 71 118 122 157 160 162 164 167 168 167 168 169 171 169 165 163 159 155 149 143 139 136 133 131 125 118 113 114 120 122 123 123 120
317 91 84 101 106 195 226 257 154 196 97 129 102 23 72 60 74 141 151 155 160 162 166 168 168 168 168 170 171 170 168 166 165 160 150 148 148 145 140 139 133 125 119 125 126 127 124 122 122
63 24 21 97 224 249 242 265 134 114 40 62 110 59 44 333 149 144 152 156 161 167 170 168 169 169 169 171 173 173 172 172 168 160 161 158 154 154 150 155 154 144 152 145 133 133 131 128 128
63 65 39 330 269 271 240 236 86 73 117 74 88 169 134 15 124 139 154 157 160 168 173 171 173 174 172 172 175 175 175 172 168 164 163 162 158 160 168 169 173 163 174 157 148 146 146 140 132
18 96 45 293 268 274 284 253 96 76 55 158 81 116 122 152 138 150 157 159 166 167 177 178 180 180 176 176 178 178 177 175 172 170 166 166 166 178 194 203 204 190 179 176 173 166 161 151 141
130 77 227 307 290 318 229 307 92 108 87 89 143 105 145 210 152 157 163 165 174 177 179 180 183 183 182 182 182 180 180 179 176 178 176 176 188 205 213 194 192 197 204 200 200 188 178 170 154
118 100 313 289 266 271 288 354 166 99 80 97 157 163 185 188 157 163 169 178 180 183 183 181 185 185 183 187 187 189 185 183 183 186 188 192 201 212 206 204 207 215 222 221 218 200 188 180 167
129 71 269 260 344 306 323 319 313 166 109 197 180 154 195 151 154 149 160 168 175 180 186 185 187 187 188 192 194 195 191 190 192 196 198 195 196 206 212 225 221 222 226 232 227 208 194 188 174
103 132 244 209 241 262 316 39 331 353 350 43 45 55 121 141 152 150 156 160 170 179 186 189 191 190 193 194 196 197 197 197 200 202 199 198 211 223 232 230 224 232 236 231 222 216 202 193 181
225 227 245 268 251 230 219 332 312 28 330 193 166 140 139 149 161 171 176 172 180 185 187 190 193 196 196 196 198 199 201 201 203 205 205 205 215 227 236 230 227 229 233 231 224 212 205 199 180
284 252 260 265 227 238 222 198 322 156 237 198 163 160 154 171 180 182 188 188 184 187 191 191 192 195 199 204 204 204 206 208 208 209 211 214 215 221 223 228 236 236 236 231 226 223 211 196 167
218 307 324 300 295 335 295 269 229 272 263 165 150 164 176 188 193 197 196 193 187 188 194 194 193 197 203 204 208 209 211 214 216 216 217 220 224 225 224 223 226 238 238 236 226 222 214 201 194
281 284 281 281 287 234 259 271 62 260 263 157 164 189 192 195 201 203 198 192 194 195 199 200 199 202 203 206 211 212 218 221 222 222 225 224 229 231 235 229 228 229 237 239 229 223 215 206 235
282 317 338 303 257 244 102 305 236 260 259 213 186 194 196 211 208 201 198 194 190 194 196 199 199 204 205 207 212 216 220 225 226 228 230 230 231 233 233 231 229 236 239 234 224 219 218 214 217
326 44 330 278 231 247 129 263 281 278 224 201 213 222 241 56 99 202 197 189 190 188 196 197 201 203 204 208 211 214 215 218 227 231 231 230 233 242 235 235 238 241 238 233 227 218 217 215 206
358 255 249 316 23 122 137 241 247 206 161 211 232 240 155 101 44 83 159 177 183 197 195 197 196 199 202 206 209 213 219 223 229 231 234 236 245 243 247 247 245 242 235 229 228 225 224 219 205
249 250 268 270 305 7 284 257 267 262 211 232 244 253 139 119 115 94 114 148 190 194 192 193 193 190 188 191 202 215 226 238 246 246 244 242 244 252 257 256 253 247 241 226 233 227 229 225 209
264 243 272 255 298 308 283 280 289 286 299 276 248 239 149 143 129 97 111 119 143 182 182 183 188 187 186 188 192 203 212 232 239 246 249 251 252 256 257 256 256 253 244 246 238 240 235 227 216
253 298 293 292 7 352 314 293 256 244 254 244 262 144 158 154 128 97 94 111 121 145 160 167 175 178 192 213 227 241 251 261 254 256 256 255 259 260 257 261 263 259 253 245 246 239 234 240 207
290 242 284 266 311 358 357 304 329 286 289 273 286 168 163 154 133 115 95 93 111 121 132 139 145 159 175 188 205 229 250 265 276 265 256 250 255 258 257 259 260 255 251 244 246 246 228 224 219
255 214 208 211 21 270 109 279 284 273 290 100 328 135 127 123 102 104 103 94 104 108 119 130 143 149 155 178 202 219 237 249 261 266 262 260 263 260 252 251 252 252 250 244 247 246 233 227 215
227 208 245 250 172 354 320 105 270 285 308 174 122 118 109 123 126 119 116 115 118 124 128 136 138 147 168 187 210 222 233 246 255 261 267 266 268 261 247 240 239 242 240 233 237 235 223 223 217
259 2 351 44 103 341 261 166 267 266 198 183 116 125 128 126 123 127 134 132 136 142 146 149 157 185 207 225 240 241 243 247 249 255 257 260 260 257 247 236 233 233 236 241 244 244 244 238 234
108 60 329 335 20 224 295 303 244 271 260 184 162 153 148 147 138 148 152 161 167 173 173 189 207 227 238 243 254 262 264 255 249 247 248 248 251 252 251 247 245 250 253 255 257 252 244 241 233
188 162 172 229 233 255 331 262 266 321 317 128 145 152 158 157 156 169 176 153 176 194 206 218 224 237 242 252 265 264 258 255 252 245 250 256 254 259 263 260 258 259 264 263 257 249 242 239 234
218 171 189 182 239 221 226 284 319 44 73 116 138 150 166 174 184 160 152 175 179 176 186 192 204 224 246 269 264 257 254 255 255 252 257 257 261 261 261 261 265 266 261 257 250 250 253 249 235
164 173 126 19 286 253 262 248 233 223 182 164 169 171 175 151 152 160 174 182 189 192 196 209 221 233 254 281 273 264 261 262 259 251 260 263 258 250 256 251 258 264 260 256 250 248 245 227 215
326 244 264 211 156 226 283 254 223 197 190 185 190 179 166 169 167 178 197 196 193 200 222 239 243 237 243 250 255 288 296 287 266 247 254 264 262 251 251 257 261 262 262 256 249 252 252 231 224
212 222 187 190 248 231 209 259 220 197 201 177 175 168 183 186 187 191 197 190 161 265 298 299 286 244 244 258 278 291 296 299 271 250 256 263 264 249 247 255 263 261 253 245 234 233 233 236 223
Height
775 775 775 777 802 806 810 793 766 762 759 748 740 746 760 761 768 788 769 769 770 772 777 782 784 788 790 792 794 795 796 798 800 801 803 805 805 807 809 810 811 812 813 815 816 815 817 818 817
774 774 776 785 813 819 811 777 767 755 748 747 745 747 756 771 758 764 768 769 768 771 776 781 784 788 791 793 795 796 797 799 800 802 804 807 808 810 811 812 812 813 815 816 818 818 819 819 820
773 774 785 799 817 813 797 767 757 747 741 744 752 750 757 768 760 762 763 769 772 774 776 781 785 789 791 794 797 798 799 800 802 804 806 807 809 811 812 814 814 815 816 816 818 819 820 821 822
772 776 787 808 809 789 773 763 749 747 743 743 752 768 761 761 760 762 767 768 771 776 779 782 787 790 792 796 797 798 800 801 803 805 807 808 809 811 812 813 813 814 815 817 818 820 822 823 823
772 785 808 808 797 778 759 749 744 750 748 749 751 771 767 762 760 763 768 771 773 778 782 784 788 791 793 796 800 802 804 805 807 808 810 812 812 813 813 814 814 812 814 816 818 819 821 823 825
784 790 814 815 795 773 757 742 743 748 747 757 761 768 769 765 761 765 771 773 777 779 782 783 787 790 794 797 799 802 805 806 808 810 812 813 814 815 816 818 818 816 816 817 818 820 822 822 825
788 801 809 799 792 779 758 740 746 750 749 751 752 770 769 766 762 766 771 772 774 777 779 781 786 790 793 796 799 802 804 807 809 811 812 811 812 812 814 813 814 816 816 816 817 819 821 823 825
780 791 801 796 794 780 753 745 740 744 748 746 746 767 768 758 761 766 772 775 776 779 782 783 787 790 792 796 798 800 802 804 807 809 812 814 816 816 816 815 815 817 817 816 817 817 819 822 825
771 801 813 797 782 776 752 753 741 734 740 741 741 746 742 750 760 766 771 775 777 780 784 786 789 792 794 796 798 800 801 801 803 805 807 808 808 810 812 814 815 814 815 816 817 817 818 820 822
781 804 791 772 764 765 756 755 754 748 747 751 750 749 748 753 759 764 767 772 775 780 784 785 788 789 791 792 795 797 800 801 803 805 807 809 809 810 811 811 813 815 815 815 816 818 819 820 823
774 787 772 763 759 756 756 754 750 754 756 748 755 755 756 758 760 762 764 763 764 769 773 777 779 780 784 789 791 793 796 798 801 805 807 808 810 811 812 812 812 813 814 816 817 816 818 821 821
778 765 761 754 752 750 753 746 751 751 747 739 741 745 752 757 757 757 760 763 765 769 772 773 775 779 782 786 789 791 795 798 800 802 805 806 807 808 809 811 812 813 812 813 815 816 817 819 822
772 763 758 754 751 747 745 748 749 746 737 738 742 746 748 750 750 752 752 757 763 765 766 769 774 779 782 785 787 790 793 796 799 801 803 804 805 806 807 808 809 812 812 812 812 814 816 817 819
765 763 759 752 750 749 751 751 748 741 734 741 743 745 745 746 745 749 753 756 758 761 767 771 773 775 777 779 783 787 790 793 796 799 800 801 803 804 805 806 807 807 811 811 811 813 815 817 816
762 768 759 749 745 748 744 758 755 738 736 737 740 741 742 739 738 738 743 749 752 759 765 766 769 772 774 777 782 786 788 792 794 796 798 801 801 801 803 803 803 805 807 809 809 811 813 815 815
772 772 783 752 742 740 747 775 747 736 739 739 736 735 734 738 739 736 739 741 749 755 758 762 766 769 773 776 781 783 786 788 791 793 794 796 798 800 801 802 801 803 803 806 807 808 809 812 813
780 793 783 766 745 746 751 766 744 733 736 740 738 736 736 739 736 732 734 739 744 749 755 760 764 767 769 775 780 783 785 787 788 789 790 792 794 796 797 797 799 801 801 802 803 805 807 809 810
789 787 779 778 756 748 757 758 747 739 740 741 739 737 743 743 740 737 736 738 743 748 755 759 763 767 771 776 780 782 784 785 788 789 789 789 791 793 793 794 795 797 797 797 800 801 803 806 808
777 776 783 775 758 758 762 763 754 745 743 742 740 740 745 744 744 741 738 739 740 746 752 758 763 768 771 774 778 781 782 784 784 785 786 787 787 788 789 789 789 792 791 792 795 798 799 803 805
768 777 781 768 759 761 766 765 752 745 739 733 731 741 744 745 745 746 744 743 742 746 753 758 762 767 772 775 778 780 783 785 784 785 785 785 784 785 785 786 785 785 787 788 790 792 796 799 799
774 778 777 778 767 760 764 768 755 738 733 727 727 729 735 738 742 744 746 746 747 751 755 759 764 769 772 774 776 778 781 782 782 782 782 782 781 781 780 782 781 780 781 782 784 787 790 793 796
783 762 765 770 778 792 767 802 764 738 737 735 733 733 740 744 745 747 750 751 753 757 759 762 765 768 771 772 774 777 778 778 777 778 777 777 776 776 775 776 777 778 777 778 780 780 783 788 791
772 758 763 765 778 783 776 792 769 743 737 739 740 738 741 745 747 750 751 752 755 758 760 763 763 766 768 770 771 771 771 772 772 773 774 773 772 771 770 769 771 772 774 774 776 776 776 779 781
752 763 769 776 789 806 778 782 776 753 735 742 742 743 745 747 749 750 750 750 753 756 758 760 763 766 767 768 768 768 767 767 768 768 769 769 768 768 766 766 767 767 768 769 770 771 773 771 775
760 784 809 805 809 806 766 775 762 738 728 727 740 747 747 747 748 749 750 751 753 755 758 760 762 763 765 765 765 764 763 763 761 761 762 762 763 762 762 764 764 765 766 765 766 766 766 769 768
768 777 804 804 805 794 767 777 751 734 729 728 735 742 745 747 746 747 747 750 753 755 756 758 759 761 760 760 760 759 760 758 756 754 755 757 756 757 759 760 760 761 762 764 765 764 764 765 764
763 779 766 784 785 799 783 758 739 735 739 738 742 743 746 745 744 745 748 749 750 752 753 754 756 757 757 756 754 754 754 755 753 752 752 752 751 753 755 755 756 758 758 759 760 761 761 761 761
753 754 778 787 799 799 778 768 759 744 742 742 743 743 743 744 745 746 746 747 748 749 751 751 751 751 751 750 750 750 749 749 749 749 749 747 747 747 749 750 751 753 753 755 756 756 757 758 757
760 767 766 771 786 795 798 777 741 738 737 740 740 740 742 744 744 744 744 744 744 746 747 747 747 746 746 746 747 746 746 744 743 743 741 743 744 742 744 745 746 747 749 751 753 753 754 755 755
756 760 762 785 778 786 788 743 726 732 731 735 739 740 741 740 741 740 738 740 741 740 740 740 740 741 743 743 742 742 742 742 741 738 738 738 738 739 740 742 742 743 745 747 748 750 752 753 754